Terug naar catalogus

STARLINK-4167

ActiefCommunicatieVLEO
NORAD 53033·PAYLOAD·🇺🇸 United States

Gelanceerd Jul 7, 2022 vanaf Cape Canaveral Space Force Station

Loading…

Volgende Passages (komende 24 uur)

TLE

VersSource: CelesTrak SupGP

Epoch: Sep 15, 2026, 02:02 UTC

1 53033C 22076AZ  26258.08520833  .00029334  00000+0  86666-3 0  2586
2 53033  53.1583 299.0067 0001091  94.1662   5.6418 15.34377037    18

Volg STARLINK-4167 in realtime met AllMySat

Download on the App Store